When you browse on this site, cookies collect data to enhance your experience and personalize the content and advertising you see.
Visit our Privacy Policy to learn more. By continuing to use the site, you agree to this use of cookies and data.
  • In France
  • List of Countries
  • For 7 days
  • Water Temperature
  • Satellite Maps
  • Weather Map
  • Weather Widgets
  • user-avatar
    Login

    Hourly Weather Kerns

    Today, 18 December, Tuesday

    Time Temperature Precipitation Wind Pressure Humidity
    00:00 +27°C° 0 mm 2 mps 754 mmHg 64%
    01:00 +27°C° 0 mm 2 mps 754 mmHg 63%
    02:00 +27°C° 0 mm 2 mps 754 mmHg 60%
    03:00 +27°C° 0 mm 2 mps 754 mmHg 58%
    04:00 +27°C° 0 mm 2 mps 754 mmHg 58%
    05:00 +27°C° 0 mm 2 mps 754 mmHg 59%
    06:00 +28°C° 0 mm 2 mps 754 mmHg 61%
    07:00 +28°C° 0 mm 3 mps 755 mmHg 63%
    08:00 +31°C° 0 mm 2 mps 755 mmHg 56%
    09:00 +35°C° 0 mm 2 mps 755 mmHg 50%
    10:00 +38°C° 0 mm 2 mps 755 mmHg 45%
    11:00 +38°C° 0 mm 2 mps 754 mmHg 46%
    12:00 +38°C° 0 mm 2 mps 754 mmHg 46%
    13:00 +38°C° 0 mm 2 mps 754 mmHg 47%
    14:00 +37°C° 0 mm 2 mps 754 mmHg 52%
    15:00 +35°C° 0 mm 2 mps 753 mmHg 57%
    16:00 +34°C° 0 mm 2 mps 753 mmHg 62%
    17:00 +32°C° 0 mm 1 mps 753 mmHg 65%
    18:00 +32°C° 0 mm 1 mps 754 mmHg 69%
    19:00 +29°C° 0 mm 0 mps 754 mmHg 72%
    20:00 +30°C° 0 mm 1 mps 754 mmHg 73%
    21:00 +30°C° 0 mm 1 mps 755 mmHg 74%
    22:00 +30°C° 0 mm 1 mps 755 mmHg 71%
    23:00 +30°C° 0 mm 1 mps 755 mmHg 71%

    Tomorrow, 19 December, Wednesday

    Time Temperature Precipitation Wind Pressure Humidity
    00:00 +30°C° 0 mm 1 mps 755 mmHg 70%
    01:00 +30°C° 0 mm 1 mps 755 mmHg 70%
    02:00 +29°C° 0 mm 1 mps 755 mmHg 71%
    03:00 +29°C° 0 mm 1 mps 755 mmHg 72%
    04:00 +29°C° 0 mm 1 mps 755 mmHg 73%
    05:00 +29°C° 0 mm 1 mps 755 mmHg 73%
    06:00 +30°C° 0 mm 1 mps 755 mmHg 73%
    07:00 +30°C° 0 mm 2 mps 756 mmHg 73%
    08:00 +32°C° 0 mm 2 mps 756 mmHg 65%
    09:00 +36°C° 0 mm 2 mps 756 mmHg 57%
    10:00 +38°C° 0 mm 2 mps 756 mmHg 49%
    11:00 +38°C° 0 mm 3 mps 755 mmHg 49%
    12:00 +39°C° 0 mm 3 mps 755 mmHg 48%
    13:00 +39°C° 0 mm 3 mps 755 mmHg 47%
    14:00 +38°C° 0.2 mm 3 mps 754 mmHg 53%
    15:00 +37°C° 0.2 mm 3 mps 754 mmHg 58%
    16:00 +36°C° 0.2 mm 3 mps 754 mmHg 64%
    17:00 +34°C° 0.8 mm 3 mps 754 mmHg 72%
    18:00 +33°C° 0.8 mm 3 mps 754 mmHg 80%
    19:00 +30°C° 0.8 mm 2 mps 754 mmHg 88%
    20:00 +30°C° 0.1 mm 2 mps 755 mmHg 89%
    21:00 +29°C° 0.1 mm 1 mps 755 mmHg 90%
    22:00 +29°C° 0.1 mm 1 mps 756 mmHg 90%
    23:00 +29°C° 0.2 mm 1 mps 756 mmHg 91%

    Day after tomorrow, 20 December, Thursday

    Time Temperature Precipitation Wind Pressure Humidity
    00:00 +29°C° 0.2 mm 1 mps 756 mmHg 92%
    01:00 +28°C° 0.2 mm 1 mps 756 mmHg 92%
    02:00 +28°C° 0.1 mm 1 mps 755 mmHg 93%
    03:00 +28°C° 0.1 mm 1 mps 755 mmHg 94%
    04:00 +27°C° 0.1 mm 1 mps 755 mmHg 94%
    05:00 +28°C° 0.1 mm 1 mps 755 mmHg 92%
    06:00 +29°C° 0.1 mm 1 mps 756 mmHg 89%
    07:00 +29°C° 0.1 mm 1 mps 756 mmHg 86%
    08:00 +32°C° 0 mm 1 mps 756 mmHg 76%
    09:00 +34°C° 0 mm 1 mps 756 mmHg 66%
    10:00 +37°C° 0 mm 1 mps 756 mmHg 55%
    11:00 +38°C° 0.1 mm 2 mps 756 mmHg 56%
    12:00 +37°C° 0.1 mm 2 mps 755 mmHg 57%
    13:00 +37°C° 0.1 mm 3 mps 755 mmHg 58%
    14:00 +37°C° 0.4 mm 3 mps 754 mmHg 62%
    15:00 +36°C° 0.4 mm 3 mps 753 mmHg 66%
    16:00 +36°C° 0.4 mm 3 mps 753 mmHg 69%
    17:00 +34°C° 0.1 mm 2 mps 753 mmHg 77%
    18:00 +31°C° 0.1 mm 2 mps 753 mmHg 84%
    19:00 +30°C° 0.1 mm 2 mps 754 mmHg 91%
    20:00 +29°C° 0.1 mm 1 mps 754 mmHg 92%
    21:00 +29°C° 0.1 mm 1 mps 755 mmHg 94%
    22:00 +26°C° 0.1 mm 0 mps 755 mmHg 95%
    23:00 +28°C° 0 mm 1 mps 755 mmHg 95%

    21 December, Friday

    Time Temperature Precipitation Wind Pressure Humidity
    00:00 +28°C° 0 mm 1 mps 755 mmHg 96%
    01:00 +28°C° 0 mm 1 mps 754 mmHg 96%
    02:00 +28°C° 0 mm 1 mps 754 mmHg 95%
    03:00 +27°C° 0 mm 1 mps 754 mmHg 94%
    04:00 +27°C° 0 mm 1 mps 753 mmHg 93%
    05:00 +28°C° 0 mm 1 mps 754 mmHg 91%
    06:00 +29°C° 0 mm 1 mps 754 mmHg 88%
    07:00 +29°C° 0 mm 1 mps 755 mmHg 86%
    08:00 +31°C° 0 mm 1 mps 755 mmHg 77%
    09:00 +34°C° 0 mm 1 mps 755 mmHg 68%
    10:00 +37°C° 0 mm 2 mps 755 mmHg 60%
    11:00 +37°C° 0.3 mm 2 mps 754 mmHg 60%
    12:00 +38°C° 0.3 mm 2 mps 754 mmHg 59%
    13:00 +38°C° 0.3 mm 3 mps 753 mmHg 59%
    14:00 +37°C° 0.5 mm 3 mps 753 mmHg 61%
    15:00 +37°C° 0.5 mm 3 mps 753 mmHg 63%
    16:00 +36°C° 0.5 mm 3 mps 752 mmHg 65%
    17:00 +35°C° 0.5 mm 3 mps 752 mmHg 73%
    18:00 +33°C° 0.5 mm 3 mps 753 mmHg 81%
    19:00 +30°C° 0.5 mm 3 mps 753 mmHg 88%
    20:00 +30°C° 0 mm 3 mps 754 mmHg 90%
    21:00 +30°C° 0 mm 3 mps 754 mmHg 93%
    22:00 +29°C° 0 mm 3 mps 754 mmHg 95%
    23:00 +29°C° 0 mm 3 mps 754 mmHg 95%

    22 December, Saturday

    Time Temperature Precipitation Wind Pressure Humidity
    00:00 +29°C° 0 mm 3 mps 754 mmHg 95%
    01:00 +29°C° 0 mm 2 mps 754 mmHg 95%
    02:00 +29°C° 0 mm 3 mps 754 mmHg 94%
    03:00 +28°C° 0 mm 3 mps 753 mmHg 94%
    04:00 +28°C° 0 mm 3 mps 753 mmHg 94%
    05:00 +29°C° 0 mm 3 mps 754 mmHg 92%
    06:00 +29°C° 0 mm 3 mps 754 mmHg 91%
    07:00 +29°C° 0 mm 3 mps 755 mmHg 89%
    08:00 +31°C° 0 mm 3 mps 755 mmHg 81%
    09:00 +34°C° 0 mm 3 mps 755 mmHg 72%
    10:00 +36°C° 0 mm 3 mps 755 mmHg 63%
    11:00 +37°C° 0.2 mm 4 mps 755 mmHg 61%
    12:00 +38°C° 0.2 mm 4 mps 754 mmHg 58%
    13:00 +40°C° 0.2 mm 4 mps 754 mmHg 55%
    14:00 +39°C° 0.3 mm 5 mps 753 mmHg 60%
    15:00 +36°C° 0.3 mm 5 mps 753 mmHg 65%
    16:00 +35°C° 0.3 mm 5 mps 752 mmHg 70%
    17:00 +34°C° 0.2 mm 5 mps 752 mmHg 75%
    18:00 +33°C° 0.2 mm 4 mps 753 mmHg 80%
    19:00 +32°C° 0.2 mm 4 mps 753 mmHg 85%
    20:00 +30°C° 0 mm 4 mps 753 mmHg 88%
    21:00 +30°C° 0 mm 4 mps 754 mmHg 90%
    22:00 +30°C° 0 mm 4 mps 754 mmHg 92%
    23:00 +29°C° 0.1 mm 4 mps 754 mmHg 92%

    23 December, Sunday

    Time Temperature Precipitation Wind Pressure Humidity
    00:00 +29°C° 0.1 mm 3 mps 754 mmHg 92%
    01:00 +29°C° 0.1 mm 3 mps 754 mmHg 92%
    02:00 +29°C° 0.6 mm 3 mps 754 mmHg 91%
    03:00 +29°C° 0.6 mm 3 mps 753 mmHg 91%
    04:00 +29°C° 0.6 mm 3 mps 753 mmHg 90%
    05:00 +29°C° 0 mm 3 mps 753 mmHg 90%
    06:00 +29°C° 0 mm 3 mps 754 mmHg 89%
    07:00 +30°C° 0 mm 2 mps 755 mmHg 88%
    08:00 +32°C° 0.4 mm 2 mps 755 mmHg 81%
    09:00 +34°C° 0.4 mm 2 mps 755 mmHg 73%
    10:00 +35°C° 0.4 mm 1 mps 755 mmHg 65%
    11:00 +37°C° 0.1 mm 2 mps 755 mmHg 61%
    12:00 +38°C° 0.1 mm 2 mps 754 mmHg 57%
    13:00 +39°C° 0.1 mm 2 mps 754 mmHg 53%
    14:00 +37°C° 0.7 mm 2 mps 753 mmHg 61%
    15:00 +36°C° 0.7 mm 3 mps 753 mmHg 68%
    16:00 +35°C° 0.7 mm 3 mps 753 mmHg 75%
    17:00 +34°C° 0.9 mm 2 mps 753 mmHg 80%
    18:00 +31°C° 0.9 mm 2 mps 754 mmHg 85%
    19:00 +30°C° 0.9 mm 2 mps 754 mmHg 91%
    20:00 +30°C° 0.1 mm 2 mps 755 mmHg 92%
    21:00 +29°C° 0.1 mm 2 mps 755 mmHg 94%
    22:00 +29°C° 0.1 mm 2 mps 755 mmHg 96%
    23:00 +29°C° 0.6 mm 2 mps 755 mmHg 96%
    Show more